Location: Observatoire de l'Aigle
(47.0607°N, 71.3152°W)
Time: 19:54:08
(UTC-04:00)

Amateur Radio Satellites - All Passes

Search period start: 31 March 2015 19:24
Search period end: 01 April 2015 19:24
Location: Observatoire de l'Aigle, 47.0607°N, 71.3152°W

Satellite Date Start Highest point End Downlink Frequencies (MHz)
Time Altitude Azimuth
CUTE 1.7 + AOD 2 31 Mar 19:32:10 19:35:07 19° 64° (ENE) 19:38:12 437.475
M-CUBED/EXP-1 PRIME 31 Mar 19:35:42 19:39:59 31° 300° (WNW) 19:44:08 437.505
CUBESAT XI-V 31 Mar 19:35:51 19:40:32 79° 285° (WNW) 19:45:07 437.345
STRAND 1 31 Mar 19:43:36 19:48:42 64° 101° (ESE) 19:53:46 437.568
CUTE-I 31 Mar 19:44:59 19:48:14 16° 273° (W) 19:51:15 437.470
Cubesat XI-IV 31 Mar 19:46:02 19:49:11 15° 273° (W) 19:52:06 437.490
AAUSAT CUBESAT 2 31 Mar 19:47:35 19:50:13 17° 63° (ENE) 19:53:00 437.432
GONETS M04 31 Mar 19:48:40 19:57:24 87° 281° (WNW) 20:06:14
SEEDS 31 Mar 19:57:02 20:00:35 27° 67° (ENE) 20:04:14 437.485
AIST 2 31 Mar 19:58:50 20:02:45 35° 242° (WSW) 20:06:34 435.215
BRITE-PL 31 Mar 20:01:51 20:06:23 65° 74° (ENE) 20:10:40 437.365/2234.400
SO-50 31 Mar 20:11:30 20:15:46 32° 321° (NW) 20:20:07 436.795
DOVE 4 31 Mar 20:13:24 20:17:19 37° 70° (ENE) 20:21:11 437.250
BEESAT 2 31 Mar 20:13:28 20:14:05 10° 251° (WSW) 20:14:29 435.950
COMPASS 1 31 Mar 20:15:24 20:19:12 34° 69° (ENE) 20:23:03 437.405
Oscar 11 31 Mar 20:30:36 20:33:59 23° 65° (ENE) 20:37:29 145.826/435.025
CUSAT 1 31 Mar 20:32:20 20:34:43 29° 96° (E) 20:37:03 437.405
GOMX 1 31 Mar 20:36:03 20:40:27 86° 257° (WSW) 20:44:41 467.674
HO-68 31 Mar 20:38:07 20:45:18 83° 254° (WSW) 20:52:34 435.675
RS-15 31 Mar 20:45:35 20:56:22 60° 319° (NW) 21:07:26 29.354- 29.394
DELFI C3 31 Mar 20:46:16 20:49:34 25° 66° (ENE) 20:52:57 145.870
AUBIESAT-1 31 Mar 20:46:28 20:47:24 10° 312° (NW) 20:48:06 437.475
FUNcube-1 31 Mar 20:46:51 20:49:35 18° 63° (ENE) 20:52:28 145.935
CANX-2 31 Mar 20:52:56 20:57:08 62° 259° (WSW) 21:01:24 2200.000
UWE-3 31 Mar 20:56:57 21:00:24 27° 67° (ENE) 21:03:57 435.000/436.395/437.385
PRISM 31 Mar 20:59:54 21:02:27 16° 299° (WNW) 21:04:53 437.425
ZACube-1 31 Mar 21:00:04 21:03:21 24° 66° (ENE) 21:06:46 437.345
PCSat 31 Mar 21:00:38 21:03:43 15° 27° (NNE) 21:06:55 145.827
CUTE 1.7 + AOD 2 31 Mar 21:06:37 21:10:44 49° 261° (W) 21:14:55 437.475
CUBEBUG 2 31 Mar 21:06:50 21:10:41 39° 70° (ENE) 21:14:37 437.445
VELOX 1 31 Mar 21:07:34 21:09:19 12° 58° (ENE) 21:11:16 145.980
CINEMA 3 31 Mar 21:11:25 21:15:35 80° 76° (ENE) 21:19:46 145.822/145.860
AISAT 31 Mar 21:12:47 21:15:03 14° 60° (ENE) 21:17:30 437.250
CUBESAT XI-V 31 Mar 21:15:39 21:17:15 11° 303° (WNW) 21:18:39 437.345
AAUSAT CUBESAT 2 31 Mar 21:21:22 21:25:29 56° 260° (W) 21:29:39 437.432
ISS 31 Mar 21:23:08 21:24:33 13° 135° (SE) 21:26:05 145.825
STRAND 1 31 Mar 21:23:43 21:27:30 21° 300° (WNW) 21:31:08 437.568
HUMSAT D 31 Mar 21:30:47 21:34:10 25° 66° (ENE) 21:37:37 437.325/437.525
SEEDS 31 Mar 21:32:32 21:36:20 31° 265° (W) 21:40:09 437.485
UKube-1 31 Mar 21:37:09 21:41:16 44° 70° (ENE) 21:45:26 .
DANDE 31 Mar 21:37:13 21:39:49 34° 285° (WNW) 21:42:14 436.750
BRITE-PL 31 Mar 21:42:56 21:45:24 14° 271° (W) 21:47:37 437.365/2234.400
50 SAT 31 Mar 21:47:52 21:51:04 25° 67° (ENE) 21:54:21 437.505
GONETS M04 31 Mar 21:49:10 21:55:49 22° 304° (NW) 22:02:11
ESTCUBE 1 31 Mar 21:50:06 21:53:03 18° 62° (ENE) 21:56:07 437.505/2401.250
DX 1 31 Mar 21:50:35 21:54:53 64° 73° (ENE) 21:59:14 434.975-435.025
COMPASS 1 31 Mar 21:51:30 21:54:59 24° 267° (W) 21:58:27 437.405
DOVE 4 31 Mar 21:51:56 21:55:17 22° 268° (W) 21:58:30 437.250
SO-50 31 Mar 21:55:52 21:57:50 12° 344° (NNW) 21:59:46 436.795
Oscar 11 31 Mar 22:05:55 22:10:00 39° 263° (W) 22:14:06 145.826/435.025
DELFI C3 31 Mar 22:20:54 22:24:38 33° 264° (W) 22:28:22 145.870
FUNcube-1 31 Mar 22:21:34 22:25:36 50° 261° (W) 22:29:42 145.935
HO-68 31 Mar 22:29:41 22:34:16 17° 275° (W) 22:38:30 435.675
UWE-3 31 Mar 22:33:11 22:36:54 31° 265° (W) 22:40:38 435.000/436.395/437.385
CUBEBUG 1 31 Mar 22:33:41 22:37:44 37° 69° (ENE) 22:41:48 437.445
SPROUT 31 Mar 22:35:26 22:37:00 12° 59° (ENE) 22:38:45 437.525
ZACube-1 31 Mar 22:35:47 22:39:36 35° 264° (W) 22:43:28 437.345
VELOX 1 31 Mar 22:40:51 22:45:18 89° 255° (WSW) 22:49:45 145.980
PCSat 31 Mar 22:43:10 22:48:29 52° 50° (NE) 22:53:47 145.827
CUBEBUG 2 31 Mar 22:44:26 22:47:37 20° 269° (W) 22:50:44 437.445
AISAT 31 Mar 22:46:42 22:51:09 77° 257° (WSW) 22:55:37 437.250
UNISAT 6 31 Mar 22:50:51 22:54:58 32° 95° (E) 22:59:10 437.425
CINEMA 3 31 Mar 22:53:02 22:53:30 10° 275° (W) 22:53:45 145.822/145.860
ISS 31 Mar 22:57:15 23:00:30 72° 151° (SSE) 23:03:45 145.825
QB50P1 31 Mar 22:58:34 23:01:35 19° 91° (E) 23:04:42 145.935-145.965
DUCHIFAT 1 31 Mar 22:58:55 23:01:52 19° 91° (E) 23:04:57 145.980
TIGRISAT 31 Mar 22:59:46 23:04:01 38° 97° (E) 23:08:23 435.000
RS-15 31 Mar 23:01:56 23:11:36 33° 351° (N) 23:21:34 29.354- 29.394
HUMSAT D 31 Mar 23:06:09 23:09:51 32° 264° (W) 23:13:35 437.325/437.525
QB50P2 31 Mar 23:13:53 23:17:33 28° 95° (E) 23:21:14 145.880/145.840
UKube-1 31 Mar 23:14:22 23:17:40 20° 268° (W) 23:20:52 .
50 SAT 31 Mar 23:22:24 23:25:54 30° 265° (W) 23:29:24 437.505
ESTCUBE 1 31 Mar 23:25:00 23:29:31 62° 259° (W) 23:34:03 437.505/2401.250
BUGSAT 1 31 Mar 23:27:24 23:30:47 26° 94° (E) 23:34:14 437.445
DX 1 31 Mar 23:29:10 23:31:39 14° 271° (W) 23:33:57 434.975-435.025
ANTELSAT 31 Mar 23:31:16 23:35:54 79° 103° (ESE) 23:40:34 437.575/2403.000
SO-50 31 Mar 23:39:33 23:40:34 11° 9° (N) 23:41:38 436.795
YUBILEINY 31 Mar 23:41:03 23:49:06 39° 66° (ENE) 23:57:13 435.215
POPSAT HIP 1 31 Mar 23:41:45 23:45:53 52° 99° (E) 23:50:03 437.405
TISAT 1 31 Mar 23:48:16 23:52:21 50° 71° (ENE) 23:56:27 437.305
NANOSAT C BR1 31 Mar 23:51:12 23:55:25 66° 102° (ESE) 23:59:37 145.865
POLYITAN 1 31 Mar 23:57:51 00:02:07 80° 101° (E) 00:06:23 437.675
SPROUT 01 Apr 00:08:13 00:12:31 87° 259° (W) 00:16:50 437.525
CUBEBUG 1 01 Apr 00:10:34 00:14:14 24° 267° (W) 00:17:49 437.445
SWISSCUBE 01 Apr 00:12:12 00:15:44 21° 62° (ENE) 00:19:22 437.505
BEESAT 01 Apr 00:14:44 00:18:13 21° 62° (ENE) 00:21:49 436.000
VELOX 1 01 Apr 00:22:03 00:22:38 10° 275° (W) 00:22:57 145.980
PCSat 01 Apr 00:27:02 00:31:40 28° 249° (WSW) 00:36:11 145.827
UNISAT 6 01 Apr 00:27:40 00:31:45 32° 293° (WNW) 00:35:50 437.425
QB50P1 01 Apr 00:33:40 00:37:43 44° 289° (WNW) 00:41:45 145.935-145.965
DUCHIFAT 1 01 Apr 00:33:56 00:37:59 45° 289° (WNW) 00:42:00 145.980
ISS 01 Apr 00:33:58 00:37:04 39° 351° (N) 00:40:08 145.825
TIGRISAT 01 Apr 00:36:47 00:40:40 27° 294° (WNW) 00:44:32 435.000
QB50P2 01 Apr 00:49:42 00:53:28 31° 292° (WNW) 00:57:12 145.880/145.840
ITUPSAT 1 01 Apr 01:01:56 01:06:35 51° 70° (ENE) 01:11:17 437.325
BUGSAT 1 01 Apr 01:02:46 01:06:19 30° 292° (WNW) 01:09:50 437.445
ANTELSAT 01 Apr 01:09:33 01:12:10 15° 300° (WNW) 01:14:39 437.575/2403.000
KKS-1 01 Apr 01:17:08 01:19:47 16° 61° (ENE) 01:22:35 437.445
RS-15 01 Apr 01:17:32 01:27:50 39° 24° (NNE) 01:38:40 29.354- 29.394
POPSAT HIP 1 01 Apr 01:18:32 01:21:27 18° 297° (WNW) 01:24:16 437.405
SO-50 01 Apr 01:19:01 01:22:55 23° 33° (NNE) 01:26:53 436.795
TISAT 1 01 Apr 01:25:39 01:28:29 17° 270° (W) 01:31:12 437.305
NANOSAT C BR1 01 Apr 01:28:23 01:30:50 15° 299° (WNW) 01:33:08 145.865
POLYITAN 1 01 Apr 01:35:31 01:37:31 13° 300° (WNW) 01:39:20 437.675
YUBILEINY 01 Apr 01:37:49 01:46:22 56° 269° (W) 01:54:48 435.215
STARS 01 Apr 01:42:20 01:45:17 18° 62° (ENE) 01:48:20 437.465
SWISSCUBE 01 Apr 01:48:32 01:53:15 55° 260° (W) 01:58:01 437.505
BEESAT 01 Apr 01:50:59 01:55:43 57° 260° (W) 02:00:29 436.000
ITAMSAT 1 01 Apr 01:55:56 01:58:44 15° 87° (E) 02:01:45 435.822/435.867
ISS 01 Apr 02:10:48 02:13:53 40° 10° (N) 02:16:59 145.825
Oscar 19 01 Apr 02:22:01 02:27:13 73° 103° (ESE) 02:32:25 437.125/150
ITUPSAT 1 01 Apr 02:41:06 02:44:49 21° 269° (W) 02:48:26 437.325
O/OREOS (USA 219) 01 Apr 02:44:15 02:46:53 16° 101° (E) 02:49:41 437.305
KKS-1 01 Apr 02:51:35 02:56:00 66° 259° (W) 03:00:26 437.445
SO-50 01 Apr 02:59:06 03:04:06 84° 231° (SW) 03:09:03 436.795
Gurwin Techsat 1B 01 Apr 02:59:32 03:04:38 45° 98° (E) 03:09:43 435.225
MOZHAYETS 4 01 Apr 03:11:55 03:14:38 16° 61° (ENE) 03:17:32
STARS 01 Apr 03:17:06 03:21:24 55° 260° (W) 03:25:43 437.465
HORYU 2 01 Apr 03:18:11 03:20:51 16° 89° (E) 03:23:40 437.375
M-CUBED/EXP-1 PRIME 01 Apr 03:20:18 03:22:02 12° 50° (NE) 03:23:58 437.505
RS-15 01 Apr 03:30:33 03:42:02 86° 53° (NE) 03:54:03 29.354- 29.394
ITAMSAT 1 01 Apr 03:33:45 03:38:58 80° 287° (WNW) 03:44:08 435.822/435.867
YUBILEINY 01 Apr 03:38:59 03:41:19 11° 290° (WNW) 03:42:59 435.215
AO-7 01 Apr 03:41:08 03:47:21 24° 89° (E) 03:53:51 29.400- 29.500
ISS 01 Apr 03:47:13 03:50:26 64° 210° (SSW) 03:53:38 145.825
AIST 1 01 Apr 03:55:43 04:00:03 61° 96° (E) 04:04:25
JAS-2 01 Apr 03:58:18 04:04:45 29° 88° (E) 04:10:56 435.910
GONETS M04 01 Apr 04:00:21 04:04:21 14° 47° (NE) 04:08:52
Oscar 19 01 Apr 04:02:30 04:06:04 19° 301° (WNW) 04:09:30 437.125/150
O/OREOS (USA 219) 01 Apr 04:21:15 04:25:50 66° 298° (WNW) 04:30:26 437.305
AUBIESAT-1 01 Apr 04:25:17 04:29:13 39° 62° (ENE) 04:33:28 437.475
Gurwin Techsat 1B 01 Apr 04:39:53 04:44:27 29° 296° (WNW) 04:48:55 435.225
SO-50 01 Apr 04:41:34 04:44:00 13° 251° (WSW) 04:46:11 436.795
MOZHAYETS 4 01 Apr 04:46:44 04:51:22 72° 258° (WSW) 04:56:03
M-CUBED/EXP-1 PRIME 01 Apr 04:51:57 04:56:07 78° 68° (ENE) 05:00:41 437.505
HORYU 2 01 Apr 04:53:31 04:57:59 62° 288° (WNW) 05:02:25 437.375
VERMONT LUNAR 01 Apr 04:58:18 05:00:32 17° 162° (SSE) 05:02:49 437.305
CUBESAT XI-V 01 Apr 05:06:25 05:09:41 19° 63° (ENE) 05:13:04 437.345
ITAMSAT 1 01 Apr 05:15:07 05:17:44 14° 305° (NW) 05:20:08 435.822/435.867
STRAND 1 01 Apr 05:25:21 05:28:55 20° 60° (ENE) 05:32:38 437.568
ISS 01 Apr 05:25:23 05:26:19 11° 226° (SW) 05:27:08 145.825
AO-7 01 Apr 05:32:54 05:41:15 84° 291° (WNW) 05:49:34 29.400- 29.500
AIST 1 01 Apr 05:35:32 05:38:14 15° 296° (WNW) 05:40:46
JAS-2 01 Apr 05:42:43 05:50:28 67° 290° (WNW) 05:57:33 435.910
RS-15 01 Apr 05:43:49 05:53:27 31° 254° (WSW) 06:03:01 29.354- 29.394
GONETS M04 01 Apr 05:55:09 06:03:49 57° 73° (ENE) 06:12:31
AUBIESAT-1 01 Apr 06:00:40 06:04:12 25° 263° (W) 06:07:53 437.475
PHONESAT 2.4 01 Apr 06:02:47 06:05:26 20° 164° (SSE) 06:08:06 2401.200-2431.200
O/OREOS (USA 219) 01 Apr 06:04:27 06:06:17 12° 320° (NW) 06:07:56 437.305
PRISM 01 Apr 06:16:10 06:20:22 68° 73° (ENE) 06:24:35 437.425
CUTE-I 01 Apr 06:16:40 06:20:58 25° 92° (E) 06:25:21 437.470
Cubesat XI-IV 01 Apr 06:17:42 06:22:05 26° 92° (E) 06:26:32 437.490
DANDE 01 Apr 06:28:58 06:31:33 16° 69° (ENE) 06:34:46 436.750
M-CUBED/EXP-1 PRIME 01 Apr 06:29:52 06:31:46 12° 270° (W) 06:33:30 437.505
VERMONT LUNAR 01 Apr 06:34:48 06:37:40 26° 179° (S) 06:40:32 437.305
CUBESAT XI-V 01 Apr 06:42:06 06:46:46 58° 260° (W) 06:51:25 437.345
STRAND 1 01 Apr 07:02:33 07:07:41 68° 258° (WSW) 07:12:50 437.568
CUSAT 1 01 Apr 07:02:51 07:07:00 45° 76° (ENE) 07:12:30 437.405
AO-7 01 Apr 07:26:44 07:33:04 24° 312° (NW) 07:39:11 29.400- 29.500
JAS-2 01 Apr 07:29:11 07:34:10 18° 310° (NW) 07:38:42 435.910
PHONESAT 2.4 01 Apr 07:40:10 07:43:13 28° 181° (S) 07:46:18 2401.200-2431.200
GONETS M04 01 Apr 07:52:29 08:00:24 37° 275° (W) 08:08:09
PRISM 01 Apr 07:54:21 07:56:23 13° 272° (W) 07:58:14 437.425
CUTE-I 01 Apr 07:56:13 08:01:22 50° 291° (WNW) 08:06:28 437.470
Cubesat XI-IV 01 Apr 07:57:21 08:02:29 49° 291° (WNW) 08:07:34 437.490
HO-68 01 Apr 08:04:17 08:08:15 16° 84° (E) 08:12:35 435.675
BRITE-PL 01 Apr 08:04:18 08:06:35 14° 89° (E) 08:09:05 437.365/2234.400
DANDE 01 Apr 08:10:53 08:14:56 57° 260° (W) 08:20:21 436.750
VERMONT LUNAR 01 Apr 08:12:21 08:14:49 19° 195° (SSW) 08:17:16 437.305
GOMX 1 01 Apr 08:34:52 08:38:02 20° 92° (E) 08:41:26 467.674
CANX-2 01 Apr 08:36:05 08:39:07 19° 90° (E) 08:42:15 2200.000
CUSAT 1 01 Apr 08:46:06 08:49:45 23° 265° (W) 08:54:05 437.405
CUTE 1.7 + AOD 2 01 Apr 08:49:16 08:52:43 23° 92° (E) 08:56:12 437.475
ANTELSAT 01 Apr 08:59:40 09:01:32 13° 59° (ENE) 09:03:33 437.575/2403.000
AAUSAT CUBESAT 2 01 Apr 09:02:15 09:05:16 19° 91° (E) 09:08:22 437.432
BEESAT 3 01 Apr 09:03:36 09:06:35 20° 114° (ESE) 09:09:41 437.485
CINEMA 3 01 Apr 09:03:55 09:06:32 16° 89° (E) 09:09:22 145.822/145.860
SEEDS 01 Apr 09:13:36 09:17:32 34° 96° (E) 09:21:27 437.485
PHONESAT 2.4 01 Apr 09:18:28 09:21:00 19° 198° (SSW) 09:23:31 2401.200-2431.200
POLYITAN 1 01 Apr 09:21:32 09:22:41 11° 59° (ENE) 09:24:01 437.675
COMPASS 1 01 Apr 09:31:13 09:35:18 43° 98° (E) 09:39:21 437.405
BRITE-PL 01 Apr 09:41:25 09:45:34 59° 287° (WNW) 09:49:54 437.365/2234.400
DOVE 4 01 Apr 09:45:57 09:50:19 71° 102° (ESE) 09:54:54 437.250
HO-68 01 Apr 09:50:02 09:57:17 79° 106° (ESE) 10:04:30 435.675
Oscar 11 01 Apr 09:50:12 09:54:03 29° 95° (E) 09:57:53 145.826/435.025
UNISAT 6 01 Apr 09:53:03 09:57:02 39° 69° (ENE) 10:01:08 437.425
QB50P1 01 Apr 09:54:29 09:57:43 22° 65° (ENE) 10:01:03 145.935-145.965
DUCHIFAT 1 01 Apr 09:54:32 09:57:44 22° 65° (ENE) 10:01:00 145.980
DELFI C3 01 Apr 09:57:35 10:01:05 26° 94° (E) 10:04:35 145.870
AIST 2 01 Apr 09:59:54 10:03:16 23° 115° (ESE) 10:06:44 435.215
TIGRISAT 01 Apr 10:01:42 10:05:46 46° 71° (ENE) 10:09:57 435.000
BEESAT 2 01 Apr 10:06:50 10:10:56 69° 124° (SE) 10:15:06 435.950
FUNcube-1 01 Apr 10:07:01 10:10:36 24° 93° (E) 10:14:18 145.935
QB50P2 01 Apr 10:09:52 10:13:36 32° 68° (ENE) 10:17:22 145.880/145.840
CANX-2 01 Apr 10:11:11 10:15:21 47° 289° (WNW) 10:19:30 2200.000
GOMX 1 01 Apr 10:12:21 10:16:26 44° 289° (WNW) 10:20:42 467.674
UWE-3 01 Apr 10:19:12 10:23:22 39° 97° (E) 10:27:39 435.000/436.395/437.385
BUGSAT 1 01 Apr 10:20:30 10:24:03 29° 68° (ENE) 10:27:37 437.445
ZACube-1 01 Apr 10:20:51 10:24:51 34° 96° (E) 10:28:58 437.345
CUTE 1.7 + AOD 2 01 Apr 10:24:45 10:28:47 38° 290° (WNW) 10:32:46 437.475
VELOX 1 01 Apr 10:30:00 10:32:13 14° 88° (E) 10:34:37 145.980
CUBEBUG 2 01 Apr 10:30:43 10:35:07 62° 101° (E) 10:39:40 437.445
ANTELSAT 01 Apr 10:33:26 10:37:44 82° 257° (WSW) 10:42:08 437.575/2403.000
AISAT 01 Apr 10:35:40 10:38:24 16° 89° (E) 10:41:17 437.250
AAUSAT CUBESAT 2 01 Apr 10:37:06 10:41:10 45° 289° (WNW) 10:45:11 437.432
POPSAT HIP 1 01 Apr 10:37:26 10:41:34 59° 73° (ENE) 10:45:44 437.405
CINEMA 3 01 Apr 10:39:47 10:44:10 62° 286° (WNW) 10:48:44 145.822/145.860
BEESAT 3 01 Apr 10:40:19 10:44:21 51° 312° (NW) 10:48:25 437.485
NANOSAT C BR1 01 Apr 10:46:37 10:50:49 74° 75° (ENE) 10:55:02 145.865
HUMSAT D 01 Apr 10:46:54 10:50:43 32° 95° (E) 10:54:36 437.325/437.525
SEEDS 01 Apr 10:49:37 10:53:14 26° 293° (WNW) 10:56:47 437.485
POLYITAN 1 01 Apr 10:53:46 10:58:00 89° 77° (ENE) 11:02:14 437.675
50 SAT 01 Apr 10:56:57 11:00:22 26° 94° (E) 11:03:50 437.505
UKube-1 01 Apr 10:57:35 11:01:50 53° 100° (E) 11:06:04 .
COMPASS 1 01 Apr 11:07:29 11:10:45 21° 295° (WNW) 11:13:57 437.405
DX 1 01 Apr 11:12:01 11:16:23 79° 103° (ESE) 11:20:43 434.975-435.025
ESTCUBE 1 01 Apr 11:15:21 11:18:51 22° 92° (E) 11:22:25 437.505/2401.250
DOVE 4 01 Apr 11:25:13 11:27:42 15° 298° (WNW) 11:30:04 437.250
Oscar 11 01 Apr 11:26:21 11:30:14 31° 292° (WNW) 11:34:03 145.826/435.025
DUCHIFAT 1 01 Apr 11:29:23 11:33:22 40° 262° (W) 11:37:20 145.980
QB50P1 01 Apr 11:29:26 11:33:25 39° 262° (W) 11:37:23 145.935-145.965
UNISAT 6 01 Apr 11:30:35 11:34:02 23° 268° (W) 11:37:26 437.425
DELFI C3 01 Apr 11:32:37 11:36:16 30° 292° (WNW) 11:39:51 145.870
AIST 2 01 Apr 11:37:29 11:41:38 47° 313° (NW) 11:45:50 435.215
HO-68 01 Apr 11:38:38 11:44:23 26° 305° (NW) 11:49:57 435.675
TIGRISAT 01 Apr 11:39:43 11:42:50 19° 270° (W) 11:45:54 435.000
FUNcube-1 01 Apr 11:42:59 11:47:04 38° 290° (WNW) 11:51:12 145.935
QB50P2 01 Apr 11:45:55 11:49:33 27° 266° (W) 11:53:08 145.880/145.840
BEESAT 2 01 Apr 11:46:19 11:49:32 21° 325° (NW) 11:52:42 435.950
SPROUT 01 Apr 11:53:31 11:55:35 13° 87° (E) 11:57:50 437.525
CUBEBUG 1 01 Apr 11:55:32 11:59:45 48° 99° (E) 12:03:56 437.445
BUGSAT 1 01 Apr 11:55:54 11:59:31 28° 265° (W) 12:03:05 437.445
UWE-3 01 Apr 11:56:08 11:59:46 25° 294° (WNW) 12:03:23 435.000/436.395/437.385
ZACube-1 01 Apr 11:57:22 12:01:10 28° 293° (WNW) 12:04:57 437.345
Oscar 19 01 Apr 12:04:22 12:08:11 22° 61° (ENE) 12:12:08 437.125/150
VELOX 1 01 Apr 12:04:56 12:09:20 67° 287° (WNW) 12:13:42 145.980
CUBEBUG 2 01 Apr 12:08:30 12:11:27 17° 297° (WNW) 12:14:19 437.445
AISAT 01 Apr 12:11:06 12:15:26 56° 288° (WNW) 12:19:45 437.250
POPSAT HIP 1 01 Apr 12:15:27 12:17:55 15° 271° (W) 12:20:13 437.405
BEESAT 3 01 Apr 12:21:27 12:23:22 13° 334° (NNW) 12:25:13 437.485
HUMSAT D 01 Apr 12:22:46 12:26:26 28° 293° (WNW) 12:30:04 437.325/437.525
NANOSAT C BR1 01 Apr 12:25:38 12:27:17 12° 273° (W) 12:28:43 145.865
50 SAT 01 Apr 12:31:43 12:35:18 30° 292° (WNW) 12:38:50 437.505
UKube-1 01 Apr 12:34:36 12:37:39 19° 298° (WNW) 12:40:36 .
YUBILEINY 01 Apr 12:46:11 12:53:59 39° 86° (E) 13:01:59 435.215
Gurwin Techsat 1B 01 Apr 12:46:32 12:49:38 16° 57° (ENE) 12:52:54 435.225
O/OREOS (USA 219) 01 Apr 12:49:08 12:53:35 50° 59° (ENE) 12:57:59 437.305
DX 1 01 Apr 12:49:54 12:52:06 13° 301° (WNW) 12:54:08 434.975-435.025
ESTCUBE 1 01 Apr 12:51:39 12:55:57 43° 291° (WNW) 13:00:12 437.505/2401.250
AO-7 01 Apr 12:56:35 12:59:59 13° 36° (NE) 13:03:42 29.400- 29.500
ITUPSAT 1 01 Apr 13:02:49 13:03:10 10° 84° (E) 13:03:50 437.325
TISAT 1 01 Apr 13:05:28 13:09:39 61° 101° (E) 13:13:49 437.305
ITAMSAT 1 01 Apr 13:16:13 13:20:46 32° 65° (ENE) 13:25:24 435.822/435.867
AIST 2 01 Apr 13:19:18 13:21:18 13° 335° (NNW) 13:23:12 435.215
SPROUT 01 Apr 13:27:56 13:32:13 66° 286° (WNW) 13:36:27 437.525
PCSat 01 Apr 13:28:56 13:33:07 24° 109° (ESE) 13:37:27 145.827
CUBEBUG 1 01 Apr 13:32:38 13:35:49 20° 297° (WNW) 13:38:54 437.445
Oscar 19 01 Apr 13:42:08 13:47:11 59° 259° (W) 13:52:16 437.125/150
SWISSCUBE 01 Apr 13:46:06 13:50:18 30° 95° (E) 13:54:31 437.505
BEESAT 01 Apr 13:48:28 13:52:39 29° 94° (E) 13:56:50 436.000
AIST 1 01 Apr 14:00:25 14:03:43 21° 68° (ENE) 14:07:04
JAS-2 01 Apr 14:14:08 14:19:18 22° 53° (NE) 14:24:54 435.910
HORYU 2 01 Apr 14:19:23 14:22:45 22° 64° (ENE) 14:26:14 437.375
Gurwin Techsat 1B 01 Apr 14:23:38 14:28:58 88° 251° (WSW) 14:34:20 435.225
O/OREOS (USA 219) 01 Apr 14:29:19 14:32:41 20° 258° (WSW) 14:35:55 437.305
ITUPSAT 1 01 Apr 14:37:08 14:41:58 82° 104° (ESE) 14:46:46 437.325
KKS-1 01 Apr 14:40:28 14:43:38 19° 91° (E) 14:46:54 437.445
YUBILEINY 01 Apr 14:41:58 14:50:36 55° 287° (WNW) 14:59:15 435.215
TISAT 1 01 Apr 14:42:27 14:45:02 16° 298° (WNW) 14:47:29 437.305
AO-7 01 Apr 14:43:08 14:50:48 45° 59° (ENE) 14:58:34 29.400- 29.500
ITAMSAT 1 01 Apr 14:55:19 15:00:12 39° 263° (W) 15:05:05 435.822/435.867
STARS 01 Apr 15:04:23 15:07:46 22° 92° (E) 15:11:14 437.465
PCSat 01 Apr 15:10:49 15:16:11 61° 307° (NW) 15:21:35 145.827
SWISSCUBE 01 Apr 15:23:50 15:28:13 35° 293° (WNW) 15:32:32 437.505
BEESAT 01 Apr 15:26:10 15:30:35 36° 293° (WNW) 15:34:55 436.000
AIST 1 01 Apr 15:37:33 15:41:35 39° 268° (W) 15:45:33
BEESAT 3 01 Apr 15:42:51 15:43:22 10° 21° (NNE) 15:43:59 437.485
HORYU 2 01 Apr 15:54:54 15:59:10 45° 261° (W) 16:03:29 437.375
JAS-2 01 Apr 15:56:03 16:03:13 80° 74° (ENE) 16:11:04 435.910
Gurwin Techsat 1B 01 Apr 16:07:17 16:09:50 13° 275° (W) 16:12:07 435.225
Cubesat XI-IV 01 Apr 16:07:55 16:08:37 10° 52° (NE) 16:09:35 437.490
KKS-1 01 Apr 16:16:16 16:20:35 49° 289° (WNW) 16:24:52 437.445
ITUPSAT 1 01 Apr 16:16:29 16:19:18 15° 301° (WNW) 16:21:56 437.325
AO-7 01 Apr 16:35:34 16:43:36 50° 260° (W) 16:51:36 29.400- 29.500
MOZHAYETS 4 01 Apr 16:39:32 16:43:08 22° 91° (E) 16:46:49
STARS 01 Apr 16:40:16 16:44:27 42° 290° (WNW) 16:48:36 437.465
AIST 2 01 Apr 16:40:54 16:42:27 12° 23° (NNE) 16:44:05 435.215
YUBILEINY 01 Apr 16:45:51 16:50:07 14° 314° (NW) 16:53:54 435.215
BEESAT 2 01 Apr 16:46:10 16:49:16 20° 35° (NE) 16:52:24 435.950
PCSat 01 Apr 16:57:17 17:00:47 17° 331° (NNW) 17:04:13 145.827
GONETS M04 01 Apr 17:11:07 17:13:08 11° 71° (ENE) 17:15:49
SO-50 01 Apr 17:18:26 17:21:04 15° 110° (ESE) 17:23:56 436.795
BEESAT 3 01 Apr 17:18:48 17:22:38 36° 44° (NE) 17:26:27 437.485
AUBIESAT-1 01 Apr 17:38:38 17:42:19 22° 96° (E) 17:46:01 437.475
CUTE-I 01 Apr 17:41:16 17:46:29 55° 70° (ENE) 17:51:44 437.470
Cubesat XI-IV 01 Apr 17:42:29 17:47:44 57° 70° (ENE) 17:53:00 437.490
JAS-2 01 Apr 17:43:31 17:49:15 24° 275° (W) 17:55:06 435.910
RS-15 01 Apr 17:58:48 18:08:21 39° 109° (ESE) 18:18:15 29.354- 29.394
M-CUBED/EXP-1 PRIME 01 Apr 18:05:33 18:10:11 43° 103° (ESE) 18:14:42 437.505
MOZHAYETS 4 01 Apr 18:16:09 18:20:37 45° 290° (WNW) 18:25:01
AIST 2 01 Apr 18:18:06 18:22:12 42° 46° (NE) 18:26:13 435.215
BEESAT 2 01 Apr 18:23:44 18:27:54 73° 236° (SW) 18:31:58 435.950
CUBESAT XI-V 01 Apr 18:36:10 18:40:08 28° 93° (E) 18:44:08 437.345
HO-68 01 Apr 18:36:52 18:41:38 20° 51° (NE) 18:46:37 435.675
SO-50 01 Apr 18:56:21 19:01:02 80° 308° (NW) 19:05:53 436.795
BEESAT 3 01 Apr 18:57:00 19:00:38 30° 243° (WSW) 19:04:11 437.485
GONETS M04 01 Apr 18:59:46 19:08:10 57° 91° (E) 19:16:42
STRAND 1 01 Apr 19:10:18 19:14:51 32° 95° (E) 19:19:26 437.568
AUBIESAT-1 01 Apr 19:12:42 19:17:26 53° 295° (WNW) 19:22:01 437.475
DOVE 4 01 Apr 19:20:30 19:22:00 12° 60° (ENE) 19:23:40 437.250
